Location: Hilton Head Island
(32.2163°N, 80.7526°W)
Time: 09:16:01
(UTC-04:00)

Vanguard 1 - Pass Details

Date: 16 February 2026
Orbit: 653 x 3818 km, 34.2° (Epoch: 17 March)

Event Time Altitude Azimuth Distance (km) Brightness Sun altitude
Rises 01:37:10 0° 276° (W) 7,957 14.6 -65.8°
Enters shadow 01:39:09 - 273° (W) 7,724 14.5 -65.5°
Reaches altitude 10° 01:49:25 10° 251° (WSW) 6,665 - -64.1°
Maximum altitude 01:54:51 11° 236° (SW) 6,270 - -63.3°
Drops below altitude 10° 01:59:54 10° 220° (SW) 6,067 - -62.5°
Sets 02:09:24 0° 191° (S) 6,257 - -60.9°
